Location: *
(28.3744°N, 81.5492°W)
Time: 14:18:47
(UTC+00:00)

Cosmos 1500 Rocket - Pass Details

Date: 15 June 2025
Orbit: 597 x 624 km, 82.5° (Epoch: 15 July)

Event Time Altitude Azimuth Distance (km) Brightness Sun altitude
Rises 01:57:09 0° 349° (N) 2,906 7.8 -17.8°
Reaches altitude 10° 01:59:25 10° 346° (NNW) 1,995 7.0 -18.1°
Maximum altitude 02:03:46 59° 267° (W) 717 4.0 -18.9°
Enters shadow 02:06:34 21° 193° (SSW) 1,401 5.1 -19.3°
